FW9374 Weather Reports


time (UTC)temp
C
wind
direction
speed
KPH
gust
KPH
rain 1hr
cm
rain 24hr
cm
rain mn
cm
humidity
%
barometer
mb
20260508165057 21 327 1.6 1.6 0.00 0.00 0.00 39 1016.6
20260508164559 20 286 0.0 0.0 0.00 0.00 0.00 42 1016.9
20260508164057 21 256 0.0 1.6 0.00 0.00 0.00 37 1016.9
20260508163559 20 129 1.6 4.8 0.00 0.00 0.00 35 1016.9
20260508163059 20 31 1.6 1.6 0.00 0.00 0.00 43 1017.3
20260508162601 20 7 0.0 1.6 0.00 0.00 0.00 44 1017.3
20260508162058 20 71 1.6 1.6 0.00 0.00 0.00 37 1017.3
20260508161558 20 202 0.0 3.2 0.00 0.00 0.00 39 1017.3
20260508161100 20 120 0.0 1.6 0.00 0.00 0.00 35 1017.3
20260508160557 20 252 1.6 1.6 0.00 0.00 0.00 34 1017.3
20260508160058 20 347 1.6 3.2 0.00 0.00 0.00 40 1017.3
20260508155600 19 285 0.0 1.6 0.00 0.00 0.00 36 1017.6
20260508155057 20 273 1.6 1.6 0.00 0.00 0.00 42 1017.3
20260508154559 20 137 1.6 1.6 0.00 0.00 0.00 39 1017.6
20260508154057 20 135 1.6 1.6 0.00 0.00 0.00 43 1017.6
20260508153558 20 132 0.0 1.6 0.00 0.00 0.00 45 1017.6
20260508153058 20 163 0.0 1.6 0.00 0.00 0.00 45 1017.6
20260508152604 20 135 0.0 1.6 0.00 0.00 0.00 39 1017.6
20260508152057 20 135 0.0 3.2 0.00 0.00 0.00 42 1017.6
20260508151558 19 202 1.6 1.6 0.00 0.00 0.00 44 1017.6
20260508151059 18 111 0.0 1.6 0.00 0.00 0.00 48 1017.6
20260508150557 18 171 1.6 3.2 0.00 0.00 0.00 41 1017.6
20260508150058 17 37 0.0 1.6 0.00 0.00 0.00 55 1017.6
20260508145557 17 41 1.6 3.2 0.00 0.00 0.00 58 1017.6
20260508145058 17 298 0.0 1.6 0.00 0.00 0.00 61 1017.6
20260508144558 17 223 1.6 1.6 0.00 0.00 0.00 65 1017.9
20260508144100 16 282 1.6 1.6 0.00 0.00 0.00 50 1017.6
20260508143600 16 286 0.0 1.6 0.00 0.00 0.00 63 1017.9
20260508143058 16 286 0.0 0.0 0.00 0.00 0.00 63 1017.9
20260508142559 16 284 1.6 3.2 0.00 0.00 0.00 62 1017.9
20260508142100 16 240 1.6 1.6 0.00 0.00 0.00 72 1017.6
20260508141601 16 234 1.6 3.2 0.00 0.00 0.00 62 1017.9
20260508141100 15 200 0.0 3.2 0.00 0.00 0.00 65 1017.9
20260508140558 15 99 0.0 1.6 0.00 0.00 0.00 72 1017.9
20260508140100 15 102 1.6 1.6 0.00 0.00 0.00 68 1017.9
20260508135558 15 201 0.0 0.0 0.00 0.00 0.00 75 1017.9
20260508135059 15 202 0.0 1.6 0.00 0.00 0.00 73 1017.9
20260508134601 15 201 0.0 1.6 0.00 0.00 0.00 75 1017.9
20260508134057 15 197 1.6 1.6 0.00 0.00 0.00 73 1017.9
20260508133559 14 177 1.6 1.6 0.00 0.00 0.00 73 1017.9
20260508133057 14 107 0.0 1.6 0.00 0.00 0.00 71 1017.6
20260508132558 15 85 1.6 1.6 0.00 0.00 0.00 72 1017.6
20260508132102 14 158 0.0 0.0 0.00 0.00 0.00 71 1017.6
20260508131558 14 177 0.0 0.0 0.00 0.00 0.00 85 1017.6
20260508131100 14 178 0.0 0.0 0.00 0.00 0.00 85 1017.6
20260508130557 13 179 0.0 0.0 0.00 0.00 0.00 87 1017.9
20260508130057 13 179 0.0 0.0 0.00 0.00 0.00 86 1017.6
20260508125600 13 179 0.0 0.0 0.00 0.00 0.00 86 1017.3
20260508125058 14 179 0.0 0.0 0.00 0.00 0.00 88 1017.3
20260508124559 13 179 0.0 0.0 0.00 0.00 0.00 91 1017.6
20260508124058 13 179 0.0 0.0 0.00 0.00 0.00 91 1017.3
20260508123559 13 179 0.0 0.0 0.00 0.00 0.00 92 1017.3
20260508123057 13 179 0.0 0.0 0.00 0.00 0.00 92 1017.3
20260508122557 13 179 0.0 0.0 0.00 0.00 0.00 94 1017.3
20260508122057 12 179 0.0 0.0 0.00 0.00 0.00 97 1016.9
20260508121559 12 179 0.0 0.0 0.00 0.00 0.00 98 1016.9
20260508121057 12 179 0.0 0.0 0.00 0.00 0.00 99 1016.9
20260508120558 12 179 0.0 0.0 0.00 0.00 0.00 99 1016.9
20260508120059 12 179 0.0 0.0 0.00 0.00 0.00 99 1016.9
20260508115558 11 179 0.0 0.0 0.00 0.00 0.00 99 1016.9
20260508115058 11 179 0.0 0.0 0.00 0.00 0.00 99 1016.9
20260508114559 11 179 0.0 0.0 0.00 0.00 0.00 99 1016.9
20260508114059 11 179 0.0 0.0 0.00 0.00 0.00 99 1016.9
20260508113558 11 179 0.0 0.0 0.00 0.00 0.00 99 1016.6
20260508113058 11 179 0.0 0.0 0.00 0.00 0.00 99 1016.6
20260508112557 11 179 0.0 0.0 0.00 0.00 0.00 99 1016.3
20260508112057 11 179 0.0 0.0 0.00 0.00 0.00 99 1016.3
20260508111557 11 179 0.0 0.0 0.00 0.00 0.00 99 1016.3
20260508111100 11 179 0.0 0.0 0.00 0.00 0.00 99 1015.9
20260508110559 10 179 0.0 0.0 0.00 0.00 0.00 99 1016.3
20260508110057 10 179 0.0 0.0 0.00 0.00 0.00 99 1015.9
20260508105559 11 179 0.0 0.0 0.00 0.00 0.00 99 1015.9
20260508105100 11 179 0.0 0.0 0.00 0.00 0.00 99 1015.9
20260508104559 11 179 0.0 0.0 0.00 0.00 0.00 99 1015.9
20260508104058 11 179 0.0 0.0 0.00 0.00 0.00 99 1015.6
20260508103557 11 179 0.0 0.0 0.00 0.00 0.00 99 1015.6
20260508103101 11 179 0.0 0.0 0.00 0.00 0.00 99 1015.6
20260508102600 11 179 0.0 0.0 0.00 0.00 0.00 99 1015.2
20260508102057 11 179 0.0 0.0 0.00 0.00 0.00 99 1014.9
20260508101558 11 179 0.0 0.0 0.00 0.00 0.00 99 1015.2
20260508101057 11 179 0.0 0.0 0.00 0.00 0.00 99 1015.2
20260508100558 11 179 0.0 0.0 0.00 0.00 0.00 99 1015.2
20260508100100 11 179 0.0 0.0 0.00 0.00 0.00 99 1015.2
20260508095558 11 179 0.0 0.0 0.00 0.00 0.00 99 1015.2
20260508094701 11 179 0.0 0.0 0.00 0.00 0.00 99 1014.9
20260508094058 11 179 0.0 0.0 0.00 0.00 0.00 99 1014.9
20260508093558 11 179 0.0 0.0 0.00 0.00 0.00 99 1014.9
20260508093058 11 179 0.0 0.0 0.00 0.00 0.00 99 1014.9
20260508092558 12 179 0.0 0.0 0.00 0.00 0.00 99 1014.9
20260508092057 12 179 0.0 0.0 0.00 0.00 0.00 99 1014.9
20260508091559 12 179 0.0 0.0 0.00 0.00 0.00 99 1014.9
20260508091058 12 179 0.0 0.0 0.00 0.00 0.00 99 1014.6
20260508090558 12 179 0.0 0.0 0.00 0.00 0.00 99 1014.9
20260508090059 12 179 0.0 0.0 0.00 0.00 0.00 99 1014.6
20260508085600 12 179 0.0 0.0 0.00 0.00 0.00 99 1014.6
20260508085059 12 179 0.0 0.0 0.00 0.00 0.00 99 1014.9
20260508084559 12 179 0.0 0.0 0.00 0.00 0.00 99 1015.2
20260508084058 12 179 0.0 0.0 0.00 0.00 0.00 99 1014.9
20260508083557 12 179 0.0 0.0 0.00 0.00 0.00 98 1014.6
20260508083103 12 179 0.0 0.0 0.00 0.00 0.00 98 1014.6
20260508082559 12 179 0.0 0.0 0.00 0.00 0.00 98 1014.6
20260508082058 12 179 0.0 0.0 0.00 0.00 0.00 98 1014.6
20260508081557 12 179 0.0 0.0 0.00 0.00 0.00 98 1014.6
20260508081057 12 179 0.0 0.0 0.00 0.00 0.00 98 1014.2
20260508080600 12 179 0.0 0.0 0.00 0.00 0.00 98 1014.6
20260508080057 12 179 0.0 0.0 0.00 0.00 0.00 98 1014.2
20260508075557 12 179 0.0 0.0 0.00 0.00 0.00 98 1014.2
20260508075057 12 179 0.0 0.0 0.00 0.00 0.00 98 1014.2
20260508074600 12 179 0.0 0.0 0.00 0.00 0.00 98 1014.2
20260508074057 12 179 0.0 0.0 0.00 0.00 0.00 98 1014.2
20260508073557 12 179 0.0 0.0 0.00 0.00 0.00 98 1014.2
20260508073057 12 179 0.0 0.0 0.00 0.00 0.00 98 1014.2
20260508072600 12 179 0.0 0.0 0.00 0.00 0.00 98 1013.9
20260508072057 12 179 0.0 0.0 0.00 0.00 0.00 98 1013.9
20260508071558 12 179 0.0 0.0 0.00 0.00 0.00 98 1013.9
20260508071058 12 179 0.0 0.0 0.00 0.00 0.00 98 1014.2
20260508070559 12 179 0.0 0.0 0.00 0.00 0.00 98 1013.9
20260508070058 12 179 0.0 0.0 0.00 0.00 0.00 98 1013.9
20260508065557 12 179 0.0 0.0 0.00 0.00 0.00 98 1013.9
20260508065057 12 179 0.0 0.0 0.00 0.00 0.00 98 1013.9
20260508064558 12 179 0.0 0.0 0.00 0.00 0.00 98 1013.9
20260508064059 12 179 0.0 0.0 0.00 0.00 0.00 98 1013.9
20260508063557 12 179 0.0 0.0 0.00 0.00 0.00 98 1013.5
20260508063057 12 179 0.0 0.0 0.00 0.00 0.00 98 1013.9
20260508062601 12 179 0.0 0.0 0.00 0.00 0.00 98 1013.9
20260508062058 12 179 0.0 0.0 0.00 0.00 0.00 98 1014.2
20260508061559 12 179 0.0 0.0 0.00 0.00 0.00 98 1014.2
20260508061058 12 179 0.0 0.0 0.00 0.00 0.00 98 1014.2
20260508060559 12 179 0.0 0.0 0.00 0.00 0.00 98 1013.9
20260508060100 12 179 0.0 0.0 0.00 0.00 0.00 98 1014.2
20260508055559 13 179 0.0 0.0 0.00 0.00 0.00 98 1013.9
20260508055058 13 179 0.0 0.0 0.00 0.00 0.00 98 1014.2
20260508054600 13 179 0.0 0.0 0.00 0.00 0.00 98 1014.2
20260508054058 13 179 0.0 0.0 0.00 0.00 0.00 98 1014.2
20260508053557 13 179 0.0 0.0 0.00 0.00 0.00 98 1014.2
20260508053059 13 179 0.0 0.0 0.00 0.00 0.00 98 1013.9
20260508052557 13 179 0.0 0.0 0.00 0.00 0.00 98 1013.9
20260508052100 13 179 0.0 0.0 0.00 0.00 0.00 98 1013.9
20260508051559 13 179 0.0 0.0 0.00 0.00 0.00 98 1013.5
20260508051057 13 179 0.0 0.0 0.00 0.00 0.00 98 1013.9
20260508050557 13 179 0.0 0.0 0.00 0.00 0.00 98 1013.9
20260508050057 13 179 0.0 0.0 0.00 0.00 0.00 97 1013.5
20260508045557 13 179 0.0 0.0 0.00 0.00 0.00 97 1013.5
20260508045057 13 179 0.0 0.0 0.03 0.00 0.00 97 1013.5
20260508044559 13 179 0.0 0.0 0.03 0.00 0.00 97 1013.9
20260508044100 14 179 0.0 0.0 0.03 0.00 0.00 97 1013.5
20260508043558 14 179 0.0 0.0 0.03 0.00 0.00 97 1013.5
20260508043057 14 179 0.0 0.0 0.03 0.00 0.00 97 1013.5
20260508042558 14 179 0.0 0.0 0.03 0.00 0.00 97 1013.5
20260508042058 14 179 0.0 0.0 0.03 0.00 0.00 97 1013.5
20260508041558 14 179 0.0 0.0 0.03 0.00 0.00 97 1013.5
20260508041100 14 179 0.0 0.0 0.03 0.00 0.00 97 1013.5
20260508040558 14 179 0.0 0.0 0.03 0.00 0.00 97 1013.5
20260508040100 14 179 0.0 0.0 0.03 0.00 6.07 97 1013.5
20260508035559 14 179 0.0 0.0 0.03 0.00 6.07 97 1013.5
20260508035057 15 179 0.0 0.0 0.00 0.00 6.07 97 1013.5
20260508034558 15 179 0.0 0.0 0.00 0.00 6.05 97 1013.2
20260508034057 15 179 0.0 0.0 0.00 0.00 6.05 97 1013.5
20260508033600 14 179 0.0 0.0 0.00 0.00 6.05 97 1013.5
20260508033059 14 179 0.0 0.0 0.00 0.00 6.05 97 1013.2
20260508032559 14 179 0.0 0.0 0.00 0.00 6.05 97 1013.5
20260508032058 14 179 0.0 0.0 0.00 0.00 6.05 97 1013.5
20260508031557 15 179 0.0 0.0 0.00 0.00 6.05 97 1013.2
20260508031057 15 179 0.0 0.0 0.00 0.00 6.05 97 1013.2
20260508030559 15 179 0.0 0.0 0.00 0.00 6.05 97 1013.2
20260508030103 15 179 0.0 0.0 0.00 0.00 6.05 97 1013.2
20260508025558 15 179 0.0 0.0 0.00 0.00 6.05 97 1013.2
20260508025059 15 179 0.0 0.0 0.00 0.00 6.05 96 1013.2
20260508024558 15 179 0.0 0.0 0.00 0.00 6.05 96 1013.2
20260508024057 15 179 0.0 0.0 0.00 0.00 6.05 96 1012.9
20260508023557 15 179 0.0 0.0 0.00 0.00 6.05 96 1012.9
20260508023101 15 179 0.0 0.0 0.00 0.00 6.05 96 1012.9
20260508022558 15 179 0.0 0.0 0.00 0.00 6.05 96 1012.9
20260508022058 15 178 0.0 0.0 0.00 0.00 6.05 96 1012.9
20260508021559 15 178 0.0 0.0 0.00 0.00 6.05 96 1012.9
20260508021058 15 178 0.0 1.6 0.00 0.00 6.05 96 1012.9
20260508020557 15 230 0.0 0.0 0.00 0.00 6.05 96 1012.5
20260508020058 15 230 0.0 0.0 0.00 0.00 6.05 96 1012.5
20260508015557 15 230 0.0 0.0 0.00 0.00 6.05 96 1012.5
20260508015057 15 230 0.0 0.0 0.00 0.00 6.05 96 1012.2
20260508014557 15 230 0.0 0.0 0.00 0.00 6.05 96 1012.2
20260508014100 15 230 0.0 0.0 0.00 0.00 6.05 96 1012.2
20260508013558 15 230 0.0 0.0 0.00 0.00 6.05 96 1012.2
20260508013057 15 230 0.0 0.0 0.00 0.00 6.05 96 1012.2
20260508012557 15 230 0.0 1.6 0.00 0.00 6.05 95 1011.9
20260508012057 15 230 0.0 0.0 0.00 0.00 6.05 95 1011.9
20260508011558 15 230 0.0 0.0 0.00 0.00 6.05 95 1011.5
20260508011057 15 230 0.0 0.0 0.00 0.00 6.05 95 1011.5
20260508010557 15 230 0.0 0.0 0.03 0.00 6.05 95 1011.9
20260508010058 15 230 0.0 0.0 0.05 0.00 6.05 95 1011.5
20260508005558 15 230 0.0 0.0 0.10 0.00 6.05 95 1011.9
20260508005059 15 229 0.0 0.0 0.15 0.00 6.05 95 1011.5
20260508004558 15 230 0.0 1.6 0.20 0.00 6.05 94 1011.5
20260508004058 15 231 0.0 0.0 0.30 0.00 6.05 94 1011.2
20260508003558 15 230 0.0 0.0 0.38 0.00 6.05 94 1011.2
20260508003059 15 233 0.0 0.0 0.46 0.00 6.05 94 1010.8
20260508002558 15 234 0.0 0.0 0.53 0.00 6.05 94 1010.8
20260508002058 15 234 0.0 0.0 0.56 0.00 6.05 94 1010.8
20260508001557 15 234 0.0 0.0 0.56 0.00 6.05 94 1010.8
20260508001059 15 211 0.0 1.6 0.56 0.00 6.05 93 1010.8
20260508000600 15 174 0.0 0.0 0.53 0.00 6.05 94 1010.5
20260508000057 15 175 0.0 0.0 0.51 0.00 6.02 93 1010.2
20260507235557 15 176 0.0 0.0 0.46 0.00 5.99 93 1010.2
20260507235057 16 117 0.0 1.6 0.41 0.00 5.97 93 1009.8
20260507234559 16 77 0.0 3.2 0.33 0.00 5.87 93 1009.1
20260507234059 16 52 0.0 3.2 0.23 0.00 5.84 92 1009.1
20260507233557 16 61 1.6 3.2 0.15 0.00 5.69 91 1008.5
20260507233058 16 59 3.2 3.2 0.08 0.00 5.64 89 1008.5
20260507232558 17 67 1.6 3.2 0.03 0.00 5.54 85 1008.8
20260507232058 17 61 1.6 4.8 0.00 0.00 5.49 80 1008.5
20260507231557 18 64 3.2 8.0 0.00 0.00 5.46 79 1009.5
20260507231058 18 59 1.6 3.2 0.00 0.00 5.46 78 1009.1
20260507230558 18 83 1.6 1.6 0.00 0.00 5.46 77 1008.5
20260507230058 18 63 1.6 4.8 0.00 0.00 5.46 76 1008.5
20260507225557 19 97 1.6 4.8 0.00 0.00 5.46 76 1008.5
20260507225057 19 70 3.2 4.8 0.00 0.00 5.46 76 1007.8
20260507224557 20 43 1.6 3.2 0.00 0.00 5.46 77 1008.1
20260507224057 21 42 3.2 4.8 0.00 0.00 5.46 70 1008.1
20260507223558 23 84 1.6 1.6 0.00 0.00 5.46 69 1008.1
20260507223058 25 219 1.6 8.0 0.00 0.00 5.46 66 1007.5
20260507222558 25 279 1.6 1.6 0.00 0.00 5.46 64 1007.1
20260507222057 26 244 1.6 8.0 0.00 0.00 5.46 60 1006.8
20260507221602 26 316 4.8 8.0 0.00 0.00 5.46 58 1006.8
20260507221057 26 284 1.6 3.2 0.00 0.00 5.46 56 1006.8
20260507220558 26 299 3.2 3.2 0.00 0.00 5.46 57 1006.8
20260507220058 26 292 4.8 8.0 0.00 0.00 5.46 56 1006.8
20260507215557 26 274 3.2 9.7 0.00 0.00 5.46 56 1006.4
20260507215058 26 285 1.6 8.0 0.00 0.00 5.46 59 1006.8
20260507214557 26 310 3.2 9.7 0.00 0.00 5.46 59 1006.8
20260507214057 26 263 1.6 9.7 0.00 0.00 5.46 59 1006.4
20260507213559 26 294 4.8 4.8 0.00 0.00 5.46 58 1006.4
20260507213059 25 275 1.6 8.0 0.00 0.00 5.46 61 1006.4
20260507212600 26 335 1.6 9.7 0.00 0.00 5.46 60 1006.4
20260507212059 25 319 4.8 8.0 0.00 0.00 5.46 59 1006.4
20260507211558 25 319 0.0 4.8 0.00 0.00 5.46 61 1006.4
20260507211057 26 292 1.6 4.8 0.00 0.00 5.46 60 1006.8
20260507210557 24 292 3.2 3.2 0.00 0.00 5.46 61 1006.8
20260507210058 25 220 3.2 3.2 0.00 0.00 5.46 62 1006.8
20260507205557 26 278 0.0 4.8 0.00 0.00 5.46 60 1006.8
20260507205058 27 262 1.6 1.6 0.00 0.00 5.46 60 1006.4
20260507204558 26 297 4.8 8.0 0.00 0.00 5.46 55 1006.1
20260507204059 25 300 1.6 9.7 0.00 0.00 5.46 61 1006.8
20260507203558 23 75 1.6 1.6 0.00 0.00 5.46 63 1006.8
20260507203059 25 300 0.0 4.8 0.00 0.00 5.46 60 1006.8
20260507202559 26 269 1.6 4.8 0.00 0.00 5.46 59 1007.1
20260507202059 26 272 3.2 4.8 0.00 0.00 5.46 58 1006.8
20260507201600 24 266 3.2 4.8 0.00 0.00 5.46 61 1006.8
20260507201059 24 296 1.6 4.8 0.00 0.00 5.46 62 1006.8
20260507200600 25 263 3.2 8.0 0.00 0.00 5.46 61 1006.8
20260507200057 24 285 0.0 4.8 0.00 0.00 5.46 64 1007.1
20260507195601 25 255 1.6 3.2 0.00 0.00 5.46 62 1007.1
20260507195100 25 266 1.6 8.0 0.00 0.00 5.46 62 1007.1
20260507194557 25 301 0.0 3.2 0.00 0.00 5.46 63 1007.5
20260507194058 25 265 1.6 3.2 0.00 0.00 5.46 63 1007.5
20260507193600 25 102 1.6 4.8 0.00 0.00 5.46 64 1007.8
20260507193059 25 255 3.2 4.8 0.00 0.00 5.46 63 1007.8
20260507192558 25 261 4.8 4.8 0.00 0.00 5.46 61 1007.5
20260507192100 23 304 0.0 3.2 0.00 0.00 5.46 68 1007.5
20260507191559 23 252 0.0 3.2 0.00 0.00 5.46 74 1007.8
20260507191100 22 265 1.6 3.2 0.00 0.00 5.46 70 1007.8
20260507190558 23 269 1.6 1.6 0.00 0.00 5.46 72 1008.1
20260507190057 23 269 3.2 4.8 0.00 0.00 5.46 68 1008.1
20260507185558 23 352 1.6 1.6 0.00 0.00 5.46 73 1007.8
20260507185059 23 287 0.0 3.2 0.00 0.00 5.46 78 1007.8
20260507184600 23 295 3.2 4.8 0.00 0.00 5.46 67 1007.8
20260507184057 23 290 1.6 3.2 0.00 0.00 5.46 68 1007.5
20260507183558 22 253 1.6 3.2 0.00 0.00 5.46 72 1007.8
20260507183058 22 275 1.6 1.6 0.00 0.00 5.46 76 1007.8
20260507182601 22 262 1.6 1.6 0.00 0.00 5.46 78 1007.8
20260507182057 22 260 1.6 3.2 0.00 0.00 5.46 75 1007.8
20260507181558 23 278 1.6 3.2 0.00 0.00 5.46 74 1007.8
20260507181058 22 259 1.6 3.2 0.00 0.00 5.46 75 1007.8
20260507180607 22 274 0.0 0.0 0.00 0.00 5.46 81 1007.8
20260507180057 21 280 1.6 1.6 0.00 0.00 5.46 82 1007.8
20260507175558 21 242 1.6 3.2 0.00 0.00 5.46 80 1008.1
20260507175058 22 355 1.6 3.2 0.00 0.00 5.46 80 1008.1
20260507174558 21 25 1.6 1.6 0.00 0.00 5.46 85 1008.1
20260507174058 21 252 1.6 3.2 0.00 0.00 5.46 85 1008.5
20260507173559 20 278 1.6 3.2 0.00 0.00 5.46 87 1008.8
20260507173058 20 245 0.0 3.2 0.00 0.00 5.46 87 1008.5
20260507172559 21 269 1.6 1.6 0.00 0.00 5.46 88 1008.5
20260507172058 21 268 0.0 0.0 0.00 0.00 5.46 88 1008.1
20260507171559 21 268 0.0 1.6 0.00 0.00 5.46 89 1008.5
20260507171058 21 282 0.0 1.6 0.00 0.00 5.46 90 1008.8
20260507170600 21 282 0.0 1.6 0.00 0.00 5.46 91 1008.5
20260507170058 21 279 1.6 1.6 0.00 0.00 5.46 90 1008.5
20260507165559 21 286 1.6 1.6 0.00 0.00 5.46 90 1008.1